Regional Weather Roundup
Issued by NWS

Home | Current Version | Previous Version | Graphics & Text | Print | Product List | Glossary Off
Versions: 1 2 3 4 5 6 7 8 9 10 11 12 13 14 15 16 17 18 19 20 21 22 23 24 25 26 27 28 29 30 31 32 33 34 35 36 37 38 39 40 41 42 43 44 45 46 47 48 49 50

938
ASUS43 KMPX 210910
RWRMN
WEATHER ROUNDUP FOR MINNESOTA
NATIONAL WEATHER SERVICE TWIN CITIES/CHANHASSEN MN
400 AM CDT SAT APR 21 2018


NOTE: "FAIR" INDICATES FEW OR NO CLOUDS BELOW 12,000 FEET WITH NO
SIGNIFICANT WEATHER AND/OR OBSTRUCTIONS TO VISIBILITY. N/A MEANS
CURRENT SKY AND/OR WEATHER CONDITIONS ARE NOT AVAILABLE.

MNZ060>063-068>070-211000-
   Twin Cities Metro

CITY           SKY/WX    TMP DP  RH WIND       PRES   REMARKS
TWIN CITIES    CLOUDY    38  28  67 CALM      30.42R
ST PAUL        FAIR      35  29  78 CALM      30.43R
CRYSTAL        FAIR      34  26  72 CALM      30.41R
BLAINE         FAIR      34  28  80 CALM      30.41R
LAKEVILLE      FAIR      28  28 100 CALM      30.42R
EDEN PRAIRIE   FAIR      35  27  72 CALM      30.41R
SOUTH ST PAUL  FAIR      35  26  70 CALM      30.42R
LAKE ELMO      FAIR      32  28  86 CALM      30.43R
$$
MNZ001>005-007-008-013>017-022>024-027-028-211000-
   Northwest Minnesota

CITY           SKY/WX    TMP DP  RH WIND       PRES   REMARKS
BEMIDJI        FAIR      28  21  76 CALM      30.37S
HALLOCK        FAIR      36  34  93 SE10      30.32S
ROSEAU         FAIR      34  28  80 S6        30.35S WCI  29
WARROAD        FAIR      36  30  80 S5        30.36S
THIEF RVR FALL FAIR      36  32  85 S8        30.36F
CROOKSTON      FAIR      36  34  93 S7        30.37R
FOSSTON        FAIR      30  25  80 S3        30.37S
DETROIT LAKES  FAIR      34  32  93 CALM      30.38R
MOORHEAD       FAIR      34  30  86 SE6       30.38R WCI  29
PARK RAPIDS    FAIR      30  23  75 CALM      30.37S
MAHNOMEN       FAIR      34  30  86 SE6       30.37R WCI  29
$$
MNZ006-009>011-018-025>026-211000-
   North Central Minnesota

CITY           SKY/WX    TMP DP  RH WIND       PRES   REMARKS
BAUDETTE       FAIR      31  29  92 CALM      30.36R
FLAG ISLAND    FAIR      32  28  86 SE6       30.35R WCI  26
INTL FALLS     FAIR      27  23  85 CALM      30.36R
WASKISH        FAIR      28  25  86 CALM      30.37S
BIG FORK       FAIR      27  21  80 CALM      30.37S
LONGVILLE      FAIR      25  21  86 CALM      30.39S
GRAND RAPIDS   FAIR      29  20  69 CALM      30.40S
CRANE LAKE     FAIR      21  21 100 CALM      30.39R
ORR            FAIR      34  19  55 CALM      30.35S
COOK           FAIR      30  21  69 CALM      30.38R
WALKER         FAIR      31  21  67 CALM      30.38R
$$
MNZ012-019>021-037-211000-
   Northeast Minnesota

CITY           SKY/WX    TMP DP  RH WIND       PRES   REMARKS
DULUTH         FAIR      36  19  50 NW3       30.38S
ELY            FAIR      27  21  80 SE3       30.37S
HIBBING        FAIR      24  20  84 CALM      30.38R
EVELETH        FAIR      27  22  81 CALM      30.39S
DULUTH HARBOR  FAIR      37  23  56 S3        30.41S
TWO HARBORS    FAIR      41  25  52 NW5       30.37R
SILVER BAY     FAIR      30  23  74 CALM      30.36S
GRAND MARAIS     N/A     30  23  75 CALM      30.38S
G MARAIS ARPRT FAIR      30  18  59 W3        30.36F
$$
MNZ029>031-032-039>041-046>048-054>057-064-211000-
   West Central Minnesota

CITY           SKY/WX    TMP DP  RH WIND       PRES   REMARKS
FERGUS FALLS   FAIR      34  28  80 SE6       30.37S WCI  29
WHEATON        PTCLDY    34  30  86 SE6       30.40R WCI  29
MORRIS         PTCLDY    34  30  86 SE6       30.38R WCI  29
ALEXANDRIA     FAIR      35  30  82 S5        30.39R WCI  31
ELBOW LAKE     FAIR      32  30  90 E6        30.39R WCI  27
WADENA         FAIR      28  28 100 CALM      30.38S FOG
GLENWOOD       FAIR      34  30  86 CALM      30.40R
APPLETON       CLOUDY    36  30  80 CALM      30.40R
BENSON         CLOUDY    36  28  75 S5        30.41R
ORTONVILLE     CLOUDY    34  30  86 SE3       30.39R
MADISON        CLOUDY    36  34  93 CALM      30.39R
WILLMAR        FAIR      34  30  86 CALM      30.43R
$$
MNZ033>034-036-042>043-049>051-058-059-211000-
   Central Minnesota

CITY           SKY/WX    TMP DP  RH WIND       PRES   REMARKS
ST CLOUD       FAIR      31  27  85 S5        30.40R WCI  26
SAUK CENTRE    FAIR      32  30  93 CALM      30.39R
PAYNESVILLE    FAIR      32  31  97 CALM      30.41R
AITKIN         FAIR      23  21  93 CALM      30.38S
PINE RIVER     FAIR      25  19  80 CALM      30.41S
BRAINERD       FAIR      27  23  85 CALM      30.39S
STAPLES        FAIR      27  25  93 CALM      30.39R
LONG PRAIRIE   FAIR      32  30  93 CALM      30.39S
LITTLE FALLS   FAIR      30  23  74 CALM      30.40R HAZE
LITCHFIELD     FAIR      36  30  80 CALM      30.41R
BUFFALO        FAIR      32  28  86 CALM      30.42R
MAPLE LAKE     FAIR      31  30  94 CALM      30.41R
HUTCHINSON     FAIR      34  31  87 CALM      30.41S
$$
MNZ037-044-045-052-053-211000-
   East Central Minnesota

CITY           SKY/WX    TMP DP  RH WIND       PRES   REMARKS
PRINCETON      FAIR      30  25  80 CALM      30.41S
MORA           FAIR      28  23  80 CALM      30.42S
CAMBRIDGE      FAIR      32  21  64 CALM      30.41R
RUSH CITY      FAIR      31  25  79 CALM      30.41S
MOOSE LAKE     FAIR      28  21  74 CALM      30.38S
HINCKLEY       FAIR      28  25  86 CALM      30.40S
CLOQUET        FAIR      28  19  69 W3        30.39S
MCGREGOR       FAIR      27  23  86 CALM      30.39S
$$
MNZ071>073-080-081-089-090-097-098-211000-
   Southwest Minnesota

CITY           SKY/WX    TMP DP  RH WIND       PRES   REMARKS
MONTEVIDEO     CLOUDY    34  30  86 CALM      30.40S
GRANITE FALLS  CLOUDY    35  32  90 SE5       30.42R WCI  31
CANBY          CLOUDY    35  33  91 CALM      30.40R
MARSHALL       CLOUDY    37  29  72 S6        30.39S
REDWOOD FALLS  CLOUDY    35  29  78 S5        30.41R WCI  31
OLIVIA         CLOUDY    36  32  87 S3        30.41R
PIPESTONE      CLOUDY   N/A N/A N/A SE5       30.36F
WINDOM         CLOUDY    37  19  48 S3        30.39F
WORTHINGTON    CLOUDY    36  30  79 SE7       30.39F
JACKSON        CLOUDY    36  30  80 CALM      30.39F
TRACY          CLOUDY    40  29  65 S7        30.39S
SLAYTON        CLOUDY    35  31  82 S8        30.38F WCI  29
$$
MNZ065>067-074>077-082>085-091>093-211000-
   South Central Minnesota

CITY           SKY/WX    TMP DP  RH WIND       PRES   REMARKS
MANKATO        MOCLDY    37  28  70 SE3       30.42R
NEW ULM        PTCLDY    36  27  69 CALM      30.42R
ST JAMES       CLOUDY    34  30  86 CALM      30.41F
FAIRMONT       CLOUDY    36  28  73 S3        30.40S
GLENCOE        FAIR      34  31  89 CALM      30.41R
OWATONNA       FAIR      36  30  80 E3        30.41R
WASECA         CLOUDY    36  32  87 CALM      30.41S
ALBERT LEA     MOCLDY    36  25  64 CALM      30.39F
$$
MNZ078>079-086>088-094>096-211000-
   Southeast Minnesota

CITY           SKY/WX    TMP DP  RH WIND       PRES   REMARKS
ROCHESTER      FAIR      37  25  61 E6        30.40F
RED WING       FAIR      30  27  86 CALM      30.42R
STANTON        FAIR      32  30  91 CALM      30.40S
DODGE CENTER   FAIR      34  27  75 E3        30.40S
WINONA         FAIR      34  30  86 CALM      30.42R
AUSTIN         FAIR      36  27  69 CALM      30.39F
PRESTON        CLOUDY    37  24  59 CALM      30.41S
$$
ABBREVIATIONS USED IN REMARKS
   TC - TEMPERATURES IN CELSIUS
  WCI - WIND CHILL INDEX
   HX - HEAT INDEX
  VSB - VISIBILITY
$$




USA.gov is the U.S. government's official web portal to all federal, state and local government web resources and services.